N7QNM-13 Weather Reports


Display with metric or nautical units.
time (UTC)temp
F
wind
direction
speed
MPH
gust
MPH
rain 1hr
in
rain 24hr
in
rain mn
in
humidity
%
barometer
mb
20260503045047 64 299 0.0 2.0 0.00 0.00 0.00 54 1011.7
20260503044047 65 10 1.0 6.0 0.00 0.00 0.00 53 1011.6
20260503043106 66 291 1.0 2.0 0.00 0.00 0.00 51 1011.5
20260503042104 67 244 1.0 2.0 0.00 0.00 0.00 47 1011.4
20260503041105 69 255 1.0 3.0 0.00 0.00 0.00 46 1011.3
20260503040047 69 168 1.0 5.0 0.00 0.00 0.00 45 1011.2
20260503035046 69 177 1.0 5.0 0.00 0.00 0.00 44 1011.1
20260503034044 71 274 2.0 3.0 0.00 0.00 0.00 46 1010.9
20260503033105 72 256 1.0 3.0 0.00 0.00 0.00 43 1010.7
20260503032046 74 249 2.0 3.0 0.00 0.00 0.00 45 1010.5
20260503031045 76 132 0.0 3.0 0.00 0.00 0.00 42 1010.4
20260503030045 78 146 0.0 2.0 0.00 0.00 0.00 39 1010.3
20260503025105 80 0.0 0.0 0.00 0.00 0.00 37 1010.2
20260503024105 82 214 0.0 1.0 0.00 0.00 0.00 36 1010.1
20260503023046 83 98 0.0 1.0 0.00 0.00 0.00 35 1010.0
20260503022046 83 0.0 0.0 0.00 0.00 0.00 35 1010.0
20260503021106 84 71 0.0 3.0 0.00 0.00 0.00 35 1010.0
20260503020046 84 48 1.0 4.0 0.00 0.00 0.00 35 1009.9
20260503015106 84 40 2.0 7.0 0.00 0.00 0.00 33 1009.9
20260503014046 84 44 3.0 10.0 0.00 0.00 0.00 34 1009.9
20260503013047 84 43 3.0 6.0 0.00 0.00 0.00 33 1009.8
20260503012046 84 47 5.0 10.0 0.00 0.00 0.00 32 1009.8
20260503011046 83 41 4.0 12.0 0.00 0.00 0.00 33 1009.9
20260503010047 84 46 4.0 10.0 0.00 0.00 0.00 32 1009.9
20260503005047 84 43 4.0 12.0 0.00 0.00 0.00 33 1009.9
20260503004107 85 41 4.0 11.0 0.00 0.00 0.00 33 1009.9
20260503003047 85 42 4.0 10.0 0.00 0.00 0.00 33 1010.0
20260503002047 85 51 6.0 12.0 0.00 0.00 0.00 33 1009.9
20260503001047 85 41 4.0 9.0 0.00 0.00 0.00 33 1009.9
20260503000047 84 46 5.0 13.0 0.00 0.00 0.00 32 1010.0
20260502235048 84 41 4.0 10.0 0.00 0.00 0.00 33 1010.1
20260502234047 83 63 5.0 14.0 0.00 0.00 0.00 33 1010.1
20260502233048 84 52 7.0 14.0 0.00 0.00 0.00 32 1010.2
20260502232048 84 42 4.0 9.0 0.00 0.00 0.00 33 1010.2
20260502231048 84 43 7.0 15.0 0.00 0.00 0.00 33 1010.3
20260502230048 85 17 3.0 8.0 0.00 0.00 0.00 33 1010.4
20260502225048 85 19 4.0 11.0 0.00 0.00 0.00 33 1010.5
20260502224108 84 30 3.0 13.0 0.00 0.00 0.00 34 1010.8
20260502223048 84 57 6.0 13.0 0.00 0.00 0.00 35 1010.9
20260502222050 84 62 7.0 15.0 0.00 0.00 0.00 35 1011.0
20260502221048 84 347 3.0 7.0 0.00 0.00 0.00 35 1011.2
20260502220049 83 36 3.0 14.0 0.00 0.00 0.00 35 1011.2
20260502215049 82 17 3.0 10.0 0.00 0.00 0.00 36 1011.3
20260502214109 82 48 5.0 10.0 0.00 0.00 0.00 37 1011.4
20260502213049 82 47 5.0 12.0 0.00 0.00 0.00 37 1011.6
20260502212050 82 48 7.0 15.0 0.00 0.00 0.00 38 1011.6
20260502211049 81 41 4.0 16.0 0.00 0.00 0.00 37 1011.7
20260502210050 81 44 5.0 14.0 0.00 0.00 0.00 36 1011.9
20260502205050 81 47 5.0 17.0 0.00 0.00 0.00 37 1012.0
20260502204050 80 4 4.0 13.0 0.00 0.00 0.00 37 1012.1
20260502203050 81 26 2.0 7.0 0.00 0.00 0.00 37 1012.2
20260502202050 81 17 3.0 10.0 0.00 0.00 0.00 37 1012.3
20260502201050 81 51 5.0 13.0 0.00 0.00 0.00 37 1012.4
20260502200050 81 46 5.0 10.0 0.00 0.00 0.00 37 1012.4
20260502195050 81 40 2.0 10.0 0.00 0.00 0.00 36 1012.5
20260502194050 80 32 2.0 9.0 0.00 0.00 0.00 37 1012.7
20260502193050 79 293 7.0 17.0 0.00 0.00 0.00 40 1012.7
20260502192050 79 276 7.0 13.0 0.00 0.00 0.00 40 1012.9
20260502191111 78 282 3.0 10.0 0.00 0.00 0.00 40 1013.0
20260502190111 78 267 7.0 13.0 0.00 0.00 0.00 40 1013.1
20260502185051 77 283 8.0 11.0 0.00 0.00 0.00 42 1013.2
20260502184052 77 268 7.0 11.0 0.00 0.00 0.00 42 1013.1
20260502183111 78 298 8.0 13.0 0.00 0.00 0.00 41 1013.1
20260502182052 78 44 1.0 7.0 0.00 0.00 0.00 39 1013.2
20260502181111 78 290 1.0 5.0 0.00 0.00 0.00 39 1013.2
20260502164112 72 285 7.0 9.0 0.00 0.00 0.00 47 1013.4
20260502163053 71 285 7.0 10.0 0.00 0.00 0.00 48 1013.4
20260502162053 70 266 7.0 11.0 0.00 0.00 0.00 48 1013.4
20260502161053 69 261 7.0 9.0 0.00 0.00 0.00 50 1013.4
20260502152114 66 0.0 0.0 0.00 0.00 0.00 61 1013.5
20260502151055 63 251 0.0 3.0 0.00 0.00 0.00 63 1013.4
20260502130116 53 322 0.0 1.0 0.00 0.00 0.00 80 1012.8
20260502123056 53 306 0.0 2.0 0.00 0.00 0.00 78 1012.6
20260502122057 53 35 0.0 2.0 0.00 0.00 0.00 78 1012.6
20260502121057 53 293 0.0 0.0 0.00 0.00 0.00 78 1012.6
20260502115056 53 53 0.0 3.0 0.00 0.00 0.00 77 1012.6
20260502114057 53 38 1.0 3.0 0.00 0.00 0.00 76 1012.6
20260502113057 54 46 1.0 4.0 0.00 0.00 0.00 75 1012.5
20260502112057 54 327 0.0 0.0 0.00 0.00 0.00 74 1012.5
20260502111057 55 271 0.0 2.0 0.00 0.00 0.00 73 1012.3
20260502110117 55 143 0.0 0.0 0.00 0.00 0.00 71 1012.4
20260502105118 55 244 1.0 4.0 0.00 0.00 0.00 72 1012.4
20260502104058 55 260 0.0 0.0 0.00 0.00 0.00 73 1012.4
20260502103059 54 38 1.0 3.0 0.00 0.00 0.00 73 1012.4
20260502102058 54 276 1.0 3.0 0.00 0.00 0.00 74 1012.4
20260502101058 54 306 0.0 2.0 0.00 0.00 0.00 73 1012.4
20260502091059 53 59 1.0 6.0 0.00 0.00 0.00 73 1012.7
20260502090119 54 265 4.0 6.0 0.00 0.00 0.00 71 1012.7
20260502071100 55 311 0.0 2.0 0.00 0.00 0.00 66 1012.5
20260502070100 56 0.0 0.0 0.00 0.00 0.00 65 1012.5
20260502065100 56 27 0.0 1.0 0.00 0.00 0.00 65 1012.5
20260502064120 57 248 0.0 2.0 0.00 0.00 0.00 64 1012.5
20260502063100 57 255 1.0 3.0 0.00 0.00 0.00 63 1012.5
20260502062101 57 263 0.0 3.0 0.00 0.00 0.00 64 1012.4
20260502061121 58 251 2.0 3.0 0.00 0.00 0.00 64 1012.4
20260502060101 58 297 0.0 2.0 0.00 0.00 0.00 63 1012.3
20260502055101 58 244 0.0 2.0 0.00 0.00 0.00 62 1012.4
20260502054101 59 265 0.0 2.0 0.00 0.00 0.00 61 1012.4
20260502053141 59 262 1.0 3.0 0.00 0.00 0.00 60 1012.4
20260502052101 59 265 2.0 4.0 0.00 0.00 0.00 60 1012.4
20260502051101 59 239 3.0 5.0 0.00 0.00 0.00 61 1012.4